User: anonymous
Location: Caltech
(34.1382°N, 118.1253°W)
Time: 09:42:56
(UTC-07:00)
Language:

Meteor 2-4 Rocket - Orbit

View from above orbital plane
View from above orbital plane
View from above satellite
View from above satellite

Ground track
Ground track

The orbit data is extracted from the following two-line orbital elements,

1 11289U 79021B   14293.82643845  .00000154  00000-0  75515-4 0  7488
2 11289 081.2501 030.7758 0077017 106.9674 011.1953 14.11452408833942
Epoch (UTC): 20 October 2014 19:50:04
Eccentricity: 0.0077017
inclination: 81.2501°
perigee height: 799 km
apogee height: 910 km
right ascension of ascending node: 30.7758°
argument of perigee: 106.9674°
revolutions per day: 14.11452408
mean anomaly at epoch: 11.1953°
orbit number at epoch: 83394

The dashed part of the orbit path shows where the satellite is in the earth's shadow,  

DLR